[Iaude] MPEC M17: 2024 MB [a=1.87,e=0.47,i=0.9,H=25.8]
    mpec at cfa.harvard.edu 
    mpec at cfa.harvard.edu
       
    Tue Jun 18 07:34:03 EDT 2024
    
    
  
M.P.E.C. 2024-M17                                 Issued 2024 June 18, 11:28 UT
     The Minor Planet Electronic Circulars contain information on unusual
         minor planets, routine data on comets and natural satellites,
         and occasional editorial announcements.  They are published
    on behalf of Division F of the International Astronomical Union by the
          Minor Planet Center, Smithsonian Astrophysical Observatory,
                          Cambridge, MA 02138, U.S.A.
			  
             Prepared using the Tamkin Foundation Computer Network
                              MPC at CFA.HARVARD.EDU
            URL https://www.minorplanetcenter.net/    ISSN 1523-6714
                                    2024 MB                                     
Observations:
     K24M00B  C2024 06 11.33010213 00 16.929+31 11 26.31               VEM017F51
     K24M00B  C2024 06 11.34266413 00 41.775+31 11 11.41         20.08GVEM017F51
     K24M00B  C2024 06 11.35561513 01 07.458+31 10 54.73         19.98GVEM017F51
     K24M00B  C2024 06 11.36847113 01 33.109+31 10 36.94         20.46GVEM017F51
     K24M00B*1C2024 06 17.32361717 04 51.013+14 37 23.92         19.26GVEM017G96
     K24M00B 1C2024 06 17.32925517 05 01.302+14 35 58.60               VEM017G96
     K24M00B 1C2024 06 17.34012917 05 20.958+14 33 14.47         19.27GVEM017G96
     K24M00B 1C2024 06 17.34576617 05 31.211+14 31 49.19         19.06GVEM017G96
     K24M00B KC2024 06 17.38444 17 06 38.534+14 21 20.92         19.9 GVEM017H36
     K24M00B KC2024 06 17.39506 17 06 58.102+14 18 40.72         19.3 GVEM017H36
     K24M00B KC2024 06 17.40037 17 07 07.894+14 17 20.26         19.6 GVEM017H36
     K24M00B mC2024 06 17.40300917 07 14.833+14 17 24.47         19.48GVEM017I52
     K24M00B mC2024 06 17.40322517 07 15.229+14 17 21.26         19.51GVEM017I52
     K24M00B mC2024 06 17.40344217 07 15.614+14 17 17.81         19.62GVEM017I52
     K24M00B mC2024 06 17.40365817 07 16.007+14 17 14.78         19.18GVEM017I52
     K24M00B mC2024 06 17.45638617 08 52.015+14 03 55.80         19.59GVEM017I52
     K24M00B mC2024 06 17.45660317 08 52.400+14 03 51.95         19.23GVEM017I52
     K24M00B mC2024 06 17.45681917 08 52.807+14 03 48.92         19.25GVEM017I52
     K24M00B mC2024 06 17.45703517 08 53.192+14 03 45.79         19.38GVEM017I52
     K24M00B KB2024 06 17.82156817 20 21.675+12 34 38.55         19.3 GXEM017M45
     K24M00B KB2024 06 17.82621417 20 29.502+12 33 32.98         19.4 GXEM017M45
     K24M00B KB2024 06 17.83075817 20 37.099+12 32 28.55         19.5 GXEM017M45
     K24M00B KC2024 06 17.83734 17 20 51.58 +12 31 13.4          19.2 GVEM017C82
     K24M00B KC2024 06 17.84452 17 21 03.42 +12 29 31.7          19.2 GVEM017C82
     K24M00B KC2024 06 17.85173 17 21 15.44 +12 27 50.2          19.4 GVEM017C82
     K24M00B KB2024 06 17.85654 17 21 22.77 +12 26 18.8          18.4 rZEM017106
     K24M00B KB2024 06 17.86235 17 21 32.46 +12 24 57.1          18.6 rZEM017106
     K24M00B KB2024 06 17.86801 17 21 41.81 +12 23 37.6                ZEM017106
     K24M00B KB2024 06 17.87376 17 21 51.36 +12 22 17.0                ZEM017106
     K24M00B KC2024 06 17.88134417 22 04.87 +12 20 38.0          18.2 GVEM017104
     K24M00B KC2024 06 17.89420217 22 26.12 +12 17 35.7                VEM017104
     K24M00B KC2024 06 17.90256717 22 38.95 +12 15 34.2          19.6 GVEM017L01
     K24M00B KC2024 06 17.90462417 22 42.34 +12 15 04.9          19.4 GVEM017L01
     K24M00B KC2024 06 17.90668717 22 45.75 +12 14 36.5          19.4 GVEM017L01
     K24M00B KC2024 06 17.91093917 22 52.66 +12 13 36.0          19.7 GVEM017L01
     K24M00B KB2024 06 17.91988417 23 07.918+12 11 08.27         19.9 VZEM017K74
     K24M00B KB2024 06 17.93596817 23 34.258+12 07 22.48         19.5 VZEM017K74
     K24M00B KB2024 06 17.95200917 24 00.439+12 03 36.54         19.2 VZEM017K74
     K24M00B KB2024 06 17.96714417 24 25.094+12 00 03.02         19.3 VZEM017K74
     K24M00B KC2024 06 17.97661317 24 43.222+11 57 42.16         19.4 GVEM017J95
     K24M00B KC2024 06 17.97993617 24 48.605+11 56 56.11         19.4 GVEM017J95
     K24M00B KC2024 06 17.98418517 24 55.490+11 55 56.50         19.7 GVEM017J95
     K24M00B KB2024 06 17.98541717 24 57.42 +11 56 14.7          18.9 GXEM017958
     K24M00B KB2024 06 17.99179917 25 07.71 +11 54 43.8          19.3 GXEM017958
     K24M00B KB2024 06 17.99768017 25 17.15 +11 53 21.6          19.5 GXEM017958
     K24M00B mC2024 06 18.21849817 31 34.057+11 03 11.99         19.59GVEM017I52
     K24M00B mC2024 06 18.21870317 31 34.381+11 03 08.28         18.97GVEM017I52
     K24M00B mC2024 06 18.21890717 31 34.640+11 03 06.01               VEM017I52
     K24M00B mC2024 06 18.21911117 31 34.957+11 03 03.13         19.60GVEM017I52
Observer details:
104 San Marcello Pistoiese.  Observers P. Bacci, M. Maestripieri.  Measurer P.
    Bacci.  0.60-m f/4.0 reflector + CCD.
106 Crni Vrh.  Observer J. Vales.  0.60-m f/3.3 reflector + CMO.
958 Observatoire de Dax.  Observer P. Dupouy.  0.50-m f/4.5 Reflector + CMO.
C82 Osservatorio Astronomico Nastro Verde, Sorrento.  Observer N. Ruocco.
    0.35-m f/6.3  Schmidt-Cassegrain + CCD.
F51 Pan-STARRS 1, Haleakala.  Observers J. Herman, T. Lowe, P. Minguez, A.
    Schultz, I. Smith.  Measurers K. Chambers, T. de Boer, J. Fairlamb, H.
    Gao, M. Huber, C.-C. Lin, E. Magnier, Y. Ramanjooloo, R. Wainscoat, R.
    Weryk.  1.8-m Ritchey-Chretien + CCD.
G96 Mt. Lemmon Survey.  Observer T. Beuden.  Measurers T. Beuden, V. F.
    Carvajal, D. Fay, J. B. Fazekas, D. C. Fuls, A. R. Gibbs, A. D. Grauer, H.
    Groeller, J. K. Hogan, R. A. Kowalski, S. M. Larson, G. J. Leonard, D.
    Rankin, R. L. Seaman, F. C. Shelly, K. W. Wierzchos.  1.5-m reflector +
    10K CCD.
H36 Sandlot Observatory, Scranton.  Observer G. Hug.  0.56-m f/4.8 .56 meter
    Reflector + CCD.
I52 Steward Observatory, Mt. Lemmon Station.  Observer G. J. Leonard.
    Measurers T. Beuden, V. F. Carvajal, D. Fay, J. B. Fazekas, D. C. Fuls, A.
    R. Gibbs, A. D. Grauer, H. Groeller, J. K. Hogan, R. A. Kowalski, S. M.
    Larson, G. J. Leonard, D. Rankin, R. L. Seaman, F. C. Shelly, K. W.
    Wierzchos.  1.0-m prime focus + CCD.
J95 Great Shefford.  Observer P. Birtwhistle.  0.41-m f/6.3 Schmidt-Cassegrain
    + CCD.
K74 Muensterschwarzach Observatory, Schwarzach.  Observer C. Gerhard.  0.30-m
    f/3.75 reflector + CMO.
L01 Visnjan Observatory, Tican.  Observers K. Korlevic, L. Poropat.  Measurer
    K. Korlevic.  1.0-m f/2.9 reflector + CCD.
M45 Starhopper Observatory, Sfantu Gheorghe.  Observer F. Ursache.  0.41-m
    f/7.5 reflector + CMO.
Orbital elements:
2024 MB                                                  Earth MOID = 0.0136 AU
Epoch 2024 Mar. 31.0 TT = JDT 2460400.5                 Veres                   
M 339.14191              (2000.0)            P               Q                  
n   0.38647920     Peri.   74.23415     -0.53640265     +0.84394991             
a   1.8666030      Node   163.32440     -0.78027095     -0.49385754             
e   0.4660870      Incl.    0.90969     -0.32163559     -0.20941177             
P   2.55           H   25.82          G   0.15           U   7                  
Residuals in seconds of arc
240611 F51  0.1-  0.2-    240617 I52  0.0   0.1-    240617 L01  0.3-  0.2+
240611 F51  0.3+  0.0     240617 I52  0.2-  0.0     240617 K74  0.1-  0.5-
240611 F51  0.1-  0.1+    240617 M45  0.3-  0.1+    240617 K74  0.0   0.3+
240611 F51  0.2-  0.1+    240617 M45  0.3+  0.2+    240617 K74  0.2+  0.3+
240617 G96  0.1-  0.1-    240617 M45  0.2+  0.0     240617 K74  1.0+  0.0
240617 G96 (0.9+  0.5-)   240617 C82 (1.2+  1.2-)   240617 J95  0.2+  0.4-
240617 G96  0.4+  0.7-    240617 C82 (0.8-  1.9-)   240617 J95  0.1+  0.2+
240617 G96 (1.0+  0.9-)   240617 C82 (0.5-  1.9-)   240617 J95  0.0   0.2+
240617 H36 (2.3-  0.3+)   240617 106  0.3-  0.5-    240617 958  0.2-  0.7+
240617 H36 (1.9-  1.2+)   240617 106  0.1+  0.4-    240617 958  0.4+  0.6-
240617 H36 (1.9-  1.4+)   240617 106  0.6-  0.2-    240617 958  0.4+  0.2-
240617 I52  0.0   0.0     240617 106  0.3-  0.2+    240618 I52  0.2+  0.3+
240617 I52  0.0   0.1+    240617 104 (0.9-  0.6+)   240618 I52  0.3+  0.6-
240617 I52  0.1-  0.1-    240617 104  0.2+  0.8-    240618 I52  0.5-  0.1-
240617 I52  0.1-  0.1+    240617 L01  0.3-  0.4+    240618 I52  0.4-  0.3-
240617 I52  0.1-  0.2+    240617 L01  0.0   0.1+
240617 I52  0.2-  0.4-    240617 L01  0.5+  0.7+
Ephemeris:
2024 MB                  a,e,i = 1.87, 0.47, 1                   q = 0.9966
Date    TT    R. A. (2000) Decl.     Delta      r    Elong.  Phase     V
2024 05 19    09 32 17.8 +22 11 50   0.1170  0.9983    80.1    93.2    24.5
...
2024 06 03    10 31 48.2 +26 38 38   0.05698 1.0036    77.5    99.3    23.2
...
2024 06 11    12 49 13.0 +31 12 53   0.02925 1.0188    95.9    82.4    21.1
...
2024 06 17    16 54 12.6 +16 00 43   0.02575 1.0355   138.9    40.2    19.5
2024 06 18    17 25 20.6 +11 55 47   0.02773 1.0386   144.3    34.8    19.6
2024 06 19    17 51 04.7 +08 16 24   0.03025 1.0419   148.3    30.8    19.6
...
2024 06 25    19 14 13.2 -04 35 37   0.05155 1.0639   156.5    22.4    20.6
...
2024 07 03    19 51 16.0 -10 48 51   0.08635 1.0986   160.8    17.7    21.6
...
2024 07 18    20 10 35.9 -15 14 40   0.1618  1.1769   172.4     6.5    22.7
M. P. C. Staff               (C) Copyright 2024 MPC           M.P.E.C. 2024-M17
    
    
More information about the Iaude
mailing list